Rose Bowl Half Marathon

5K

Summary

Number of finishers:
309
Number of females:
165
Number of males:
144
Average time:
36:30

Info

January 22, 2012 in Pasadena, CA

Results By

5K - Results

Leaderboard
  • Male Participants
    1. Brian Reese 19:14
    2. Kevin Perez 19:29
    3. Alex Perez 19:30
    4. Nazario Miramontes 19:56
    5. Martin Vega 20:08
  • Female Participants
    1. Jamie Peng 20:07
    2. Rosalinda Alcala 21:37
    3. Kathleen Evans 22:14
    4. Allegra Leedom 22:42
    5. Amanda O'Toole 23:23

displaying: 1 - 40 of 40
number of records per page: [10] [25] [all]

    NO FN LN DIVISION OVERALL DIVPL SEXPL TIME PACE
1539 Joseph Aiday M0113 39 4/24 32/144 24:43 7:59
1521 David Halpern M4549 40 2/11 33/144 24:44 7:59
1175 Crystal Calayag F2529 41 3/14 8/165 24:44 7:59
1322 John Petrocik M3539 42 3/9 34/144 24:49 8:01
1501 Christoper Huynh M1417 43 8/17 35/144 24:54 8:02
1412 Kaylie Koneazny F0113 44 1/25 9/165 25:00 8:04
1161 Jose Ahumada M0113 45 5/24 36/144 25:01 8:05
1240 Basil Grillo M4044 46 5/13 37/144 25:07 8:06
1209 Dieo Ehrhard M3539 47 4/9 38/144 25:14 8:09
1259 Hinata Igawa F0113 48 2/25 10/165 25:17 8:10
1362 Chris Templin M1417 49 9/17 39/144 25:18 8:10
1389 Hailey Belcher F0113 50 3/25 11/165 25:19 8:10
1391 Kallie Rushing F0113 51 4/25 12/165 25:19 8:10
1390 Cissy Belcher F4549 52 2/9 13/165 25:23 8:12
1392 Teresa Rushing F4549 53 3/9 14/165 25:25 8:12
1177 Nicolas Carre M3034 54 2/11 40/144 25:27 8:13
1508 Max Guzman Jr M1417 55 10/17 41/144 25:29 8:14
1471 Candy Miller F4044 56 2/17 15/165 25:36 8:16
1188 Audrey Clark F3539 57 1/22 16/165 25:47 8:19
1173 Mark Brubaker CLY 40+ 58 2/9 42/144 25:50 8:20
1421 Gaurav Law M0113 59 6/24 43/144 25:52 8:21
1317 Joanna O'Toole F5054 60 1/5 17/165 25:55 8:22
1303 Peter Moberly M4549 61 3/11 44/144 25:55 8:22
1220 Steve Flagg M4549 62 4/11 45/144 26:04 8:25
1528 Anthony Hua M1417 63 11/17 46/144 26:26 8:32
1469 Ginger Reynolds F5559 64 1/6 18/165 26:28 8:33
1202 Erin Donovan F3539 65 2/22 19/165 26:31 8:34
1378 Jeffrey White M4549 66 5/11 47/144 26:33 8:34
1342 Edwin Sandoval M4549 67 6/11 48/144 26:48 8:39
1298 Chuck McClain M4549 68 7/11 49/144 26:48 8:39
1253 Chungwei Hsiung M3539 69 5/9 50/144 26:48 8:39
1463 John Harper M7579 70 1/1 51/144 26:51 8:40
1376 Brandon Wheatley CLY 39- 71 1/6 52/144 26:53 8:41
1371 Quentin Valencia M0113 72 7/24 53/144 26:53 8:41
1529 Gordon Dooley M6064 73 2/7 54/144 27:08 8:45
1413 Robert Saxe M6569 74 1/4 55/144 27:13 8:47
1268 Jennifer Kim F1824 75 3/13 20/165 27:16 8:48
1305 Daniel Monarrez M1417 76 12/17 56/144 27:16 8:48
1257 Shawnee Huss F4044 77 3/17 21/165 27:23 8:50
    NO FN LN DIVISION OVERALL DIVPL SEXPL TIME PACE
463 Tom McFadden CLY 40+ 78 3/9 57/144 27:26 8:51

  • share - click this icon in the results above to share via Facebook, Twitter, email, and more
  • print - click this icon in the results above for a printable page
  • radius - click this icon in the results above to show finishers before and after